Location: Hancock Field Station
(44.9202°N, 120.4259°W)
Time: 06:40:14
(UTC-07:00)

Nadezhda 4 Rocket - Visible Passes

Search period start: 23 June 2017 00:00
Search period end: 03 July 2017 00:00
Orbit: 950 x 992 km, 82.9° (Epoch: 22 June)

Date Brightness Start Highest point End Pass type
(mag) Time Alt. Az. Time Alt. Az. Time Alt. Az.
23 Jun 5.5 01:11:11 17° SE 01:14:25 26° E 01:19:25 10° NNE visible
23 Jun 4.3 02:55:46 26° SW 02:59:16 55° WNW 03:05:29 10° N visible
24 Jun 4.8 01:35:13 27° SE 01:38:11 43° E 01:44:06 10° NNE visible
24 Jun 5.0 03:19:47 18° WSW 03:23:35 33° WNW 03:29:13 10° N visible
25 Jun 6.2 00:16:11 10° E 00:18:01 11° ENE 00:19:49 10° ENE visible
25 Jun 4.1 01:59:14 34° S 02:02:07 74° E 02:08:25 10° NNE visible
25 Jun 5.7 03:43:48 11° WSW 03:48:05 20° WNW 03:52:34 10° NNW visible
26 Jun 5.7 00:38:40 15° ESE 00:41:33 21° E 00:46:01 10° NE visible
26 Jun 4.1 02:23:14 33° SSW 02:26:12 67° W 02:32:30 10° N visible
26 Jun 6.1 04:10:45 10° WNW 04:12:47 11° WNW 04:14:49 10° NW visible
27 Jun 5.0 01:02:40 25° SE 01:05:16 35° E 01:10:53 10° NNE visible
27 Jun 4.8 02:47:14 24° SW 02:50:27 40° WNW 02:56:22 10° N visible
28 Jun 4.3 01:26:39 36° SSE 01:29:08 60° E 01:35:20 10° NNE visible
28 Jun 5.5 03:11:13 15° WSW 03:14:53 24° WNW 03:19:54 10° NNW visible
29 Jun 5.9 00:06:03 13° ESE 00:08:44 16° E 00:12:26 10° NE visible
29 Jun 4.0 01:50:37 39° SSW 01:53:11 82° W 01:59:31 10° N visible
29 Jun 6.0 03:36:12 10° W 03:39:29 14° WNW 03:42:47 10° NNW visible
30 Jun 5.3 00:30:00 22° ESE 00:32:23 28° E 00:37:37 10° NNE visible
30 Jun 4.5 02:14:34 30° SW 02:17:21 49° WNW 02:23:27 10° N visible
01 Jul 4.5 00:53:57 34° SE 00:56:12 48° E 01:02:11 10° NNE visible
01 Jul 5.2 02:38:31 20° WSW 02:41:43 29° WNW 02:47:08 10° N visible
01 Jul 6.0 23:33:19 10° ESE 23:35:56 13° ENE 23:38:32 10° NE visible
02 Jul 4.0 01:17:53 43° S 01:20:09 82° E 01:26:28 10° N visible
02 Jul 5.8 03:02:27 11° WSW 03:06:14 18° WNW 03:10:21 10° NNW visible
